Wind_Speed
47 47 46 45 45 43 41 40 40 42 42 41 39 39 40 42 43 44 45 47 49 51 52 53 54 55 57 60 61 63 64 67 68 68 71 74 77 80 84 88 93 98 101
45 45 45 46 44 42 40 39 40 41 41 39 38 39 41 42 43 45 46 49 50 52 53 54 56 58 60 61 62 64 66 68 71 72 73 77 82 87 92 96 100 101 99
42 43 44 44 42 40 38 38 39 39 39 38 38 39 40 42 44 46 48 50 51 52 54 56 58 60 61 63 64 66 68 71 75 77 79 84 90 96 99 99 96 89 81
40 42 42 41 39 37 36 36 36 36 36 36 37 39 41 43 45 47 49 50 52 54 57 58 60 61 62 64 66 69 72 76 80 83 87 92 97 99 97 89 78 68 60
38 38 37 35 34 33 32 33 33 33 34 35 37 40 43 45 45 47 49 51 54 56 58 59 61 62 64 66 69 73 77 81 86 90 95 98 97 90 81 71 60 52 48
33 32 30 29 28 28 29 30 31 32 34 36 39 42 44 44 44 47 51 54 56 57 58 59 61 63 66 69 73 78 83 88 93 97 98 95 85 74 63 55 50 46 43
26 25 25 25 25 27 29 30 31 33 36 39 41 42 41 43 47 50 53 54 55 57 58 59 62 65 69 73 77 82 89 95 98 97 91 80 68 59 54 50 48 46 43
22 22 24 26 28 28 28 30 32 35 37 39 40 40 42 45 49 52 53 54 55 57 58 61 64 68 73 77 82 87 92 94 91 83 74 64 57 53 51 49 47 45 42
20 22 25 26 26 28 31 33 34 36 37 37 38 41 45 47 49 51 52 53 55 57 60 64 68 72 77 82 87 90 91 85 76 66 58 54 52 51 50 48 47 45 42
22 23 24 26 28 29 30 31 32 33 35 37 41 44 46 47 48 50 51 53 55 58 63 67 72 77 82 87 89 88 81 69 59 53 51 50 49 48 48 47 46 45 43
24 24 24 24 24 25 27 28 31 34 36 39 42 43 45 47 48 50 51 54 57 61 66 71 76 81 85 87 85 76 65 54 48 46 45 45 45 46 45 45 45 45 43
18 18 18 19 21 23 26 29 32 35 38 39 41 43 45 46 48 50 53 57 60 64 69 74 79 83 85 81 72 60 51 45 42 41 42 42 43 44 44 43 43 42 42
13 15 17 19 22 25 28 31 34 36 38 40 42 43 45 47 49 53 56 60 64 69 73 78 81 82 78 68 56 46 40 38 38 39 40 41 43 43 42 41 41 40 40
13 16 18 21 24 27 30 32 34 36 38 40 42 44 46 49 52 56 59 63 68 72 76 79 80 75 65 51 42 36 35 35 37 38 40 41 42 42 42 41 39 38 36
14 17 20 23 26 29 31 33 36 38 39 41 42 45 48 52 55 59 62 67 71 74 77 78 72 61 48 38 33 31 33 35 37 39 41 41 41 41 41 41 39 37 35
17 20 23 26 28 30 33 35 37 38 40 42 44 48 51 55 59 63 67 71 74 77 77 70 59 45 34 28 28 30 32 35 38 39 40 41 40 40 39 38 37 35 32
20 23 25 27 30 32 34 35 37 39 41 44 48 52 55 60 63 67 71 75 77 76 69 57 43 31 25 24 25 28 32 35 37 38 39 39 39 39 38 36 34 31 28
23 25 27 29 31 33 34 36 38 41 45 49 53 56 61 65 69 72 75 77 76 68 55 41 29 21 19 21 24 28 31 34 36 37 38 38 39 38 36 34 31 28 24
25 27 29 30 32 33 35 38 42 46 50 54 58 62 66 71 75 77 78 75 67 53 39 26 18 15 17 20 23 27 30 33 35 37 38 38 38 37 34 31 28 25 23
27 28 30 31 33 35 38 42 46 50 55 59 63 67 71 76 79 79 75 65 49 34 22 14 11 13 16 19 23 26 29 32 34 36 38 38 37 36 33 29 26 23 22
28 29 30 32 35 38 42 47 51 55 60 64 69 73 77 80 79 73 61 44 28 16 9 7 8 12 15 19 23 26 29 32 34 36 37 37 36 34 32 29 26 23 22
28 29 31 34 38 42 47 51 56 61 65 71 76 81 82 79 69 54 37 21 10 4 3 5 9 13 16 20 23 25 28 31 33 34 35 35 34 33 31 27 25 23 22
28 30 33 37 41 46 51 56 61 67 72 78 82 81 74 62 46 29 14 5 1 2 4 7 10 14 17 20 23 24 26 28 30 32 32 32 31 30 28 27 26 25 24
29 32 35 40 45 50 55 61 67 72 78 81 77 68 54 37 21 8 2 4 4 4 6 9 12 15 18 21 23 24 25 27 28 29 30 30 30 30 29 29 27 26 25
30 34 38 44 49 54 60 66 71 76 77 72 61 46 30 15 5 5 7 7 6 6 8 11 14 16 18 21 22 24 25 26 27 28 29 29 29 30 29 29 28 26 25
32 36 41 46 52 58 63 68 72 72 67 55 40 25 12 7 9 10 8 6 6 8 11 13 15 16 18 20 22 23 23 24 25 26 27 28 28 28 28 28 28 27 26
Wind_Direction
234 236 237 240 243 247 251 256 260 264 269 275 281 286 290 291 292 293 295 296 296 297 297 298 299 300 301 301 302 303 304 305 305 305 305 305 304 303 303 302 302 301 299
229 231 234 238 242 246 251 256 260 265 271 277 282 286 288 290 293 294 295 295 296 297 299 300 301 302 302 303 304 306 306 307 306 306 306 306 305 305 305 304 303 302 300
223 227 232 237 241 246 252 257 263 268 273 278 281 285 289 292 293 294 295 296 298 299 301 302 303 303 304 306 307 308 308 308 308 308 308 308 307 307 306 305 304 302 300
219 225 231 236 241 248 254 260 265 269 274 278 282 287 290 292 292 294 295 298 300 302 303 303 304 306 307 308 309 309 309 309 309 309 309 309 308 307 307 306 304 302 300
217 224 230 236 243 249 255 260 266 271 276 281 285 287 289 290 292 294 297 299 301 302 303 304 306 308 309 310 310 311 311 310 310 310 309 309 308 308 307 306 304 303 301
217 224 231 237 244 249 254 260 268 274 279 282 284 286 289 292 294 296 298 300 301 303 305 307 308 309 310 311 312 312 312 311 310 310 310 309 309 308 307 306 305 302 300
216 224 230 236 240 246 253 265 272 277 279 280 284 288 291 293 295 297 299 301 303 305 307 308 309 311 311 312 313 313 312 311 311 311 310 310 310 308 308 306 304 303 301
215 221 227 235 238 246 259 268 272 275 279 283 287 290 292 294 296 298 300 303 305 307 308 310 311 312 313 313 313 313 312 312 311 310 310 310 310 309 308 307 304 302 302
215 223 231 235 248 258 263 269 275 280 284 286 289 292 294 296 298 300 303 305 307 309 310 311 312 313 313 313 314 314 313 313 313 312 312 312 312 311 310 308 307 305 305
218 227 236 246 254 262 271 278 282 285 287 290 291 293 295 298 300 303 305 307 309 311 312 312 313 314 314 315 315 315 315 314 314 314 314 315 315 314 312 311 310 308 307
225 236 246 257 268 275 280 283 285 288 290 292 293 296 298 301 304 306 307 309 311 312 312 312 313 314 316 316 316 316 316 316 316 316 316 316 316 316 315 314 312 311 309
242 256 267 273 277 280 283 286 289 291 293 295 297 300 302 304 305 307 309 310 311 312 312 313 315 317 317 318 318 318 318 319 319 320 320 319 319 318 317 317 315 314 312
262 270 276 279 282 285 288 291 293 295 297 299 301 303 304 306 308 310 311 312 313 313 314 316 317 318 319 318 318 319 321 322 323 324 323 322 321 321 320 319 318 316 315
273 278 282 285 289 291 294 295 297 299 301 302 303 304 306 308 310 310 311 312 314 315 316 318 318 319 319 318 319 322 325 326 327 327 326 325 324 323 322 322 321 319 316
283 287 290 292 294 296 298 300 301 302 303 304 305 307 308 309 310 311 312 313 314 316 317 318 318 318 318 319 322 325 329 331 331 330 330 329 328 326 324 324 324 322 320
291 294 296 298 300 301 303 303 304 305 306 307 308 309 309 310 311 312 313 314 315 317 318 318 318 317 317 320 324 329 332 334 334 333 333 333 332 330 329 328 327 327 326
298 299 300 302 303 304 305 306 306 307 308 309 310 310 311 311 312 312 313 314 315 317 318 317 316 315 317 323 328 333 336 337 337 336 335 335 336 335 334 333 332 332 332
301 302 304 305 306 307 308 308 309 310 311 311 312 311 312 312 312 312 313 314 316 317 316 315 313 313 319 327 333 337 340 341 341 341 340 339 339 339 339 338 338 340 343
305 306 307 308 309 310 311 312 313 313 313 313 313 312 312 312 312 312 313 314 316 315 314 311 310 315 325 332 338 342 345 346 346 346 346 345 345 344 345 346 348 351 355
308 309 310 311 312 313 315 316 316 316 315 314 313 312 312 312 312 313 314 315 315 313 309 307 313 324 333 338 343 346 349 350 350 351 351 351 352 352 354 357 1 5 7
311 312 313 314 316 317 319 319 318 317 316 315 314 313 312 312 313 314 315 315 313 310 308 316 329 335 339 342 346 349 352 354 355 355 356 357 359 1 4 8 12 14 14
313 314 317 319 321 322 321 320 319 318 317 315 314 313 314 314 315 316 316 315 311 312 334 348 346 345 345 346 348 350 352 355 357 359 360 2 4 7 11 14 17 19 21
316 319 322 324 325 324 323 322 321 319 318 316 315 315 316 317 317 318 319 325 23 57 26 5 355 351 348 348 350 352 353 355 358 1 4 6 9 13 17 21 23 23 24
320 324 326 327 327 326 325 324 323 321 319 318 318 319 320 321 323 330 51 101 97 65 22 2 354 350 348 348 350 353 355 357 359 2 6 10 14 18 21 22 23 24 24
323 327 328 329 329 328 328 327 325 323 322 322 323 325 328 336 11 100 111 104 81 39 10 357 350 346 346 347 350 353 355 358 1 3 6 10 14 19 21 23 23 24 24
326 329 330 331 331 331 331 329 327 327 328 329 333 341 360 56 100 111 107 86 44 13 358 350 344 340 340 344 348 352 355 358 1 3 6 10 13 17 20 21 23 24 24
Height
5656 5664 5670 5674 5678 5682 5685 5688 5689 5690 5690 5691 5691 5689 5687 5684 5681 5678 5675 5671 5666 5662 5657 5652 5647 5641 5635 5628 5621 5614 5606 5598 5592 5587 5576 5566 5556 5547 5538 5528 5516 5504 5490
5648 5655 5660 5665 5669 5673 5677 5679 5681 5681 5682 5682 5682 5680 5678 5675 5672 5669 5665 5660 5656 5651 5645 5640 5634 5628 5621 5614 5606 5597 5589 5580 5572 5567 5558 5547 5535 5523 5513 5501 5487 5472 5457
5638 5645 5651 5656 5662 5666 5669 5671 5673 5673 5674 5674 5673 5671 5669 5666 5663 5658 5654 5649 5644 5639 5633 5627 5621 5614 5606 5598 5589 5580 5571 5562 5552 5544 5536 5524 5511 5496 5485 5472 5457 5442 5428
5630 5637 5643 5650 5655 5659 5662 5664 5665 5665 5666 5665 5664 5662 5660 5656 5652 5648 5643 5638 5632 5626 5620 5613 5606 5599 5591 5582 5573 5564 5554 5543 5532 5522 5513 5501 5486 5470 5455 5443 5433 5419 5408
5624 5631 5638 5645 5649 5653 5655 5657 5657 5658 5658 5657 5655 5653 5650 5646 5641 5637 5632 5627 5621 5614 5607 5600 5592 5584 5575 5566 5556 5546 5535 5524 5512 5501 5489 5476 5461 5446 5432 5420 5412 5404 5394
5621 5628 5635 5640 5643 5646 5648 5650 5650 5650 5650 5648 5646 5643 5640 5635 5631 5626 5621 5615 5608 5602 5594 5586 5578 5568 5559 5550 5539 5528 5515 5502 5490 5477 5463 5448 5435 5422 5413 5403 5396 5391 5385
5619 5625 5630 5634 5636 5640 5642 5643 5644 5643 5642 5640 5637 5634 5630 5626 5621 5615 5610 5603 5596 5589 5581 5572 5564 5554 5544 5535 5524 5511 5496 5479 5464 5451 5438 5424 5414 5405 5398 5391 5383 5377 5371
5616 5621 5625 5628 5632 5635 5636 5637 5636 5635 5633 5630 5627 5624 5620 5615 5610 5604 5598 5591 5583 5575 5567 5558 5549 5540 5529 5518 5507 5493 5477 5459 5444 5429 5418 5408 5398 5390 5383 5377 5370 5365 5359
5614 5617 5622 5625 5628 5630 5630 5630 5628 5626 5624 5621 5618 5614 5610 5605 5599 5592 5586 5578 5571 5562 5553 5544 5534 5524 5513 5501 5488 5473 5457 5439 5423 5410 5400 5393 5385 5376 5369 5363 5357 5351 5346
5612 5616 5619 5621 5622 5623 5622 5622 5620 5618 5615 5612 5608 5604 5599 5593 5587 5581 5574 5566 5559 5550 5540 5529 5518 5507 5494 5479 5466 5452 5437 5423 5410 5399 5389 5381 5373 5365 5357 5350 5343 5337 5332
5610 5612 5614 5615 5616 5616 5615 5614 5612 5610 5607 5603 5599 5594 5588 5582 5575 5568 5561 5553 5545 5536 5525 5514 5502 5489 5475 5460 5445 5431 5419 5409 5400 5390 5381 5373 5364 5356 5348 5339 5331 5324 5318
5607 5608 5610 5610 5611 5610 5609 5608 5605 5602 5598 5593 5588 5582 5576 5570 5563 5556 5548 5539 5531 5522 5510 5498 5485 5471 5456 5441 5428 5416 5407 5398 5390 5381 5373 5365 5356 5348 5339 5331 5322 5314 5306
5605 5606 5606 5607 5606 5605 5603 5600 5597 5593 5588 5583 5577 5571 5565 5558 5551 5543 5534 5525 5515 5505 5493 5480 5466 5453 5439 5426 5415 5406 5398 5390 5382 5374 5366 5357 5348 5339 5331 5323 5314 5306 5298
5603 5603 5603 5602 5600 5598 5595 5592 5588 5583 5578 5573 5567 5560 5553 5546 5538 5530 5521 5511 5500 5489 5476 5462 5449 5436 5425 5415 5406 5398 5391 5384 5376 5368 5359 5350 5340 5331 5322 5314 5307 5299 5293
5600 5599 5598 5596 5593 5590 5587 5583 5578 5573 5568 5562 5556 5549 5542 5534 5525 5516 5507 5497 5486 5474 5461 5448 5435 5423 5414 5406 5399 5392 5385 5377 5369 5360 5351 5342 5333 5323 5314 5306 5298 5290 5283
5596 5594 5592 5589 5586 5582 5578 5574 5569 5564 5558 5551 5545 5538 5530 5521 5512 5502 5491 5480 5468 5457 5444 5432 5422 5412 5406 5400 5393 5387 5380 5372 5363 5354 5345 5335 5326 5317 5308 5299 5291 5283 5277
5590 5587 5585 5581 5578 5574 5570 5565 5560 5554 5547 5541 5533 5525 5517 5507 5498 5487 5476 5463 5451 5439 5428 5418 5410 5404 5399 5394 5389 5383 5375 5367 5358 5349 5339 5330 5321 5311 5302 5294 5286 5279 5272
5583 5581 5578 5574 5571 5566 5561 5556 5550 5544 5537 5529 5520 5512 5502 5492 5481 5470 5459 5446 5434 5423 5414 5407 5402 5398 5394 5390 5385 5378 5371 5363 5354 5345 5335 5325 5316 5306 5298 5289 5282 5275 5270
5578 5574 5571 5567 5562 5558 5552 5546 5540 5533 5525 5516 5507 5497 5486 5475 5463 5451 5440 5429 5418 5409 5403 5398 5395 5393 5390 5386 5381 5374 5367 5359 5351 5341 5331 5321 5312 5303 5294 5286 5279 5274 5269
5571 5568 5563 5559 5554 5549 5543 5537 5530 5522 5513 5503 5493 5482 5470 5457 5444 5431 5420 5410 5403 5397 5394 5392 5391 5389 5386 5382 5377 5371 5364 5356 5348 5338 5329 5319 5310 5301 5292 5285 5279 5275 5270
5564 5560 5556 5551 5546 5541 5534 5527 5519 5510 5500 5488 5476 5464 5452 5439 5425 5413 5403 5396 5392 5389 5388 5388 5387 5385 5383 5379 5374 5368 5362 5354 5346 5337 5328 5319 5310 5301 5293 5287 5282 5277 5273
5557 5553 5549 5544 5538 5532 5525 5516 5507 5496 5485 5472 5458 5443 5430 5417 5406 5396 5390 5386 5385 5385 5386 5386 5385 5383 5380 5376 5371 5366 5360 5353 5345 5337 5328 5320 5311 5304 5297 5291 5286 5281 5277
5551 5547 5542 5536 5530 5523 5515 5505 5494 5481 5467 5452 5437 5423 5410 5398 5390 5384 5382 5382 5383 5384 5385 5385 5383 5381 5378 5374 5370 5365 5359 5353 5346 5338 5330 5323 5315 5308 5302 5295 5289 5284 5280
5544 5540 5535 5529 5522 5514 5504 5492 5479 5465 5449 5432 5417 5403 5392 5385 5381 5379 5380 5382 5383 5384 5385 5384 5382 5380 5377 5373 5368 5363 5358 5352 5346 5339 5333 5325 5318 5311 5305 5298 5293 5288 5283
5538 5533 5528 5521 5513 5503 5492 5478 5464 5447 5430 5414 5401 5390 5382 5379 5379 5380 5382 5384 5385 5386 5385 5384 5381 5378 5375 5371 5367 5362 5357 5352 5346 5340 5334 5327 5320 5314 5308 5303 5297 5292 5288
5532 5527 5520 5512 5503 5492 5479 5465 5449 5432 5416 5402 5392 5384 5381 5380 5382 5384 5385 5387 5387 5387 5385 5383 5380 5377 5374 5370 5366 5361 5357 5352 5346 5341 5335 5329 5323 5317 5312 5306 5301 5296 5291